Погода в Мамае

Румыния     44°13′11″N   28°37′43″E
темп.,
°C
ветер,
м/с
пор.,
м/с
влажн.,
%
обл.,
%
осадки,
мм/ч
давл.,
гПа
погр.,
м
14 июня, пн
пн1400:00+16ссз101377100 0.0 1011825
03:00+15сз9127989 0.0 1011712
06:00+14ссз8128020 0.0 1011579
09:00+16ссз810721 0.0 1012825
12:00+19ссз78575 0.0 10121659
15:00+20ссз775484 0.0 10121485
18:00+21ссз5653100 0.0 10121129
21:00+19с8968100 0.3 1012724
15 июня, вт
вт1500:00+17ссз8976100 0.3 1013509
03:00+15ссз61080100 0.3 1013508
06:00+15сз91181100 0.1 1012668
09:00+16сз101181100 0.5 1012571
12:00+16зсз91186100 0.3 1011635
15:00+18з91087100 3.9 1009316
18:00+21сз5673100 1.6 1006270
21:00+19с91390100 6.2 1006771
16 июня, ср
ср1600:00+20с11148286 5.3 1006933
03:00+19ссз10148411 5.3 1006747
06:00+19с12158799 0.1 1006944
09:00+20с13158370 0.6 10071083
12:00+21ссв11147311 1.1 10081339
15:00+21ссв10127416 1.9 10091151
18:00+21св10117419 0.1 10101014
21:00+20св10117691 0.4 1011894
17 июня, чт
чт1700:00+20ссв5780100 1.7 1012478
03:00+19ссз6685100 2.9 1013392
06:00+18ссз677965 0.4 1013351
09:00+19ссз45755 0.4 1014499
12:00+21св23676 0.0 1015486
15:00+22ююв42689 0.0 1014406
18:00+22ююз4372100 0.2 1015331
21:00+22сз3376100 0.4 101571
18 июня, пт
пт1800:00+21зсз4485100 0.1 1015160
03:00+20зсз338998 0.3 1014172
06:00+19сз4591100 2.1 1014206
09:00+19сз4490100 3.8 1015246
12:00+20зсз4486100 1.6 1016268
15:00+21вюв1177100 1.6 1016298
18:00+22в3377100 0.7 1016189
21:00+21в4584100 1.1 1016337